This is the latest recevied weather packets stored in our database for station/object OK2JV-13. If no packets are shown the sender has not sent any weather packets the latest 10 day(s).
| Time | Temp. | Humidity | Pressure | Rain* | Wind** | Luminosity | Snow |
|---|---|---|---|---|---|---|---|
| 1788093063 | 25.56° C | 43% | 1014.2 hPa | - | - | - | - |
| 1788092459 | 25.56° C | 43% | 1014.2 hPa | - | - | - | - |
| 1788091855 | 25.56° C | 43% | 1014.2 hPa | - | - | - | - |
| 1788090656 | 25° C | 43% | 1014 hPa | - | - | - | - |
| 1788090045 | 25° C | 44% | 1014.2 hPa | - | - | - | - |
| 1788089440 | 25° C | 43% | 1014.4 hPa | - | - | - | - |
| 1788088836 | 24.44° C | 44% | 1014.3 hPa | - | - | - | - |
| 1788088232 | 24.44° C | 44% | 1014.3 hPa | - | - | - | - |
| 1788087627 | 24.44° C | 45% | 1014.3 hPa | - | - | - | - |
| 1788087025 | 24.44° C | 45% | 1014.5 hPa | - | - | - | - |
| 1788086419 | 23.89° C | 45% | 1014.5 hPa | - | - | - | - |
| 1788085815 | 23.89° C | 46% | 1014.6 hPa | - | - | - | - |
| 1788085211 | 23.33° C | 46% | 1014.7 hPa | - | - | - | - |
| 1788084607 | 23.33° C | 44% | 1014.8 hPa | - | - | - | - |
| 1788084002 | 23.33° C | 43% | 1014.6 hPa | - | - | - | - |
| 1788083399 | 23.33° C | 44% | 1014.9 hPa | - | - | - | - |
| 1788082793 | 23.33° C | 44% | 1014.8 hPa | - | - | - | - |
| 1788082189 | 23.33° C | 45% | 1015 hPa | - | - | - | - |
| 1788081585 | 22.78° C | 45% | 1015 hPa | - | - | - | - |
| 1788080980 | 22.78° C | 43% | 1015.1 hPa | - | - | - | - |
| 1788080377 | 22.78° C | 44% | 1015 hPa | - | - | - | - |
| 1788079772 | 22.78° C | 45% | 1015 hPa | - | - | - | - |
| 1788079169 | 23.33° C | 45% | 1015.2 hPa | - | - | - | - |
| 1788078565 | 22.78° C | 47% | 1015.1 hPa | - | - | - | - |
| 1788077961 | 22.78° C | 45% | 1015.1 hPa | - | - | - | - |
* Rain since midnight (hover to see other rain measurements)
** Current wind speed in m/s (hover to see current wind gust speed)